This is the latest recevied weather packets stored in our database for station/object G4IRX-10. If no packets are shown the sender has not sent any weather packets the latest 10 day(s).
| Time | Temp. | Humidity | Pressure | Rain* | Wind** | Luminosity | Snow |
|---|---|---|---|---|---|---|---|
| 1777511561 | 11.67° C | 41% | 1027.1 hPa | - | - | - | - |
| 1777510660 | 11.67° C | 41% | 1027.2 hPa | - | - | - | - |
| 1777509760 | 11.67° C | 40% | 1027.3 hPa | - | - | - | - |
| 1777508860 | 12.22° C | 40% | 1027.3 hPa | - | - | - | - |
| 1777507960 | 12.22° C | 40% | 1027.5 hPa | - | - | - | - |
| 1777507060 | 12.22° C | 39% | 1027.4 hPa | - | - | - | - |
| 1777506159 | 12.78° C | 39% | 1027.6 hPa | - | - | - | - |
| 1777505259 | 12.78° C | 39% | 1027.6 hPa | - | - | - | - |
| 1777504359 | 12.78° C | 38% | 1027.7 hPa | - | - | - | - |
| 1777503459 | 13.33° C | 38% | 1027.7 hPa | - | - | - | - |
| 1777502559 | 13.33° C | 37% | 1027.6 hPa | - | - | - | - |
| 1777502441 | 13.33° C | 37% | 1027.6 hPa | - | - | - | - |
| 1777501541 | 13.33° C | 37% | 1027.7 hPa | - | - | - | - |
| 1777500641 | 13.89° C | 36% | 1027.9 hPa | - | - | - | - |
| 1777499741 | 13.89° C | 36% | 1027.9 hPa | - | - | - | - |
| 1777498841 | 14.44° C | 36% | 1027.8 hPa | - | - | - | - |
| 1777497940 | 14.44° C | 35% | 1027.9 hPa | - | - | - | - |
| 1777497040 | 14.44° C | 35% | 1027.9 hPa | - | - | - | - |
| 1777496140 | 15° C | 35% | 1027.9 hPa | - | - | - | - |
| 1777495240 | 15.56° C | 34% | 1027.7 hPa | - | - | - | - |
| 1777494340 | 15.56° C | 34% | 1027.6 hPa | - | - | - | - |
| 1777493440 | 15.56° C | 33% | 1027.6 hPa | - | - | - | - |
| 1777492539 | 16.11° C | 33% | 1027.4 hPa | - | - | - | - |
| 1777491639 | 16.11° C | 33% | 1027.3 hPa | - | - | - | - |
| 1777490739 | 16.67° C | 33% | 1027.2 hPa | - | - | - | - |
* Rain since midnight (hover to see other rain measurements)
** Current wind speed in m/s (hover to see current wind gust speed)